Погода в Полтаве

Поиск расширенной информации на нашем сайте:

Полезная информация:

Новости сайта



02.01.2020
Опубликован Долгосрочный прогноз погоды по городам России и ближнего зарубежья на январь 2020 года.
Карты: Прогноз на январь и февраль 2020 года, Сравнение прогнозируемой аномалии приземной температуры воздуха на январь 2020 года по разным моделям.




Погода в Полтаве - сегодня

Время (UTC), дата Ветер
(°,м/с) 
Видим.   Явления Облачность Т
(°С)
Тd
(°С)
f(%) Тe
(°С)
Pmin
(гПа)
dP
(гПа)
Po
(мм)
O2
(г/м3)
Тmin Tmax R s Состояние
почвы
00 19.01.20 200 (Ю) 0500 м  переохл. туман [диам. гололёда 1 мм]  ?/?  
-3.4 -3.4 100 -3  1031  758  310           
03 19.01.20 150 (ЮВ) 0500 м  переохл. туман  ?/?  
-3.6 -3.6 100 -3  1030.7  -0.3  758  310           
06 19.01.20 150 (ЮВ) 1000 м  дымка{туман}  10/10 300 м 
[St]
-3.7 -3.9 99 -3  1031.4  0.7  758  310  -3.8    0.0     
09 19.01.20 тихо ()   4000 м  дымка  10/10 300 м 
[St]
-3.6 -4.4 94 -4  1032.2  0.7  759  310           
12 19.01.20 310 (СЗ) 4000 м  дымка{снег}  10/10 300 м 
[St]
-3.2 -4.2 93 -3  1032  -0.1  759  310      0.0     
15 19.01.20 тихо ()   2000 м  дымка  10/10 300 м 
[St]
-2.9 -3.6 95 -3  1032.9  0.9  759  310           
18 19.01.20 310 (СЗ) 4000 м  дымка  10/10 300 м 
[St]
-2.4 -3 96 -2  1033.7  0.8  760  309    -2  0.0     
21 19.01.20 290 (З) 4000 м  дымка  10/10 300 м 
[St]
-2.5 -3.1 96 -2  1034.4  0.7  760  310           
00 20.01.20 300 (СЗ) 4000 м  дымка  10/10 300 м 
[St]
-3.1 -3.8 95 -4  1035.3  0.8  761  311           
03 20.01.20 320 (СЗ) 4000 м  дымка  10/10 300 м 
[St]
-3.4 -3.8 97 -3  1035.2  -0.1  761  311           
06 20.01.20 310 (СЗ) 4000 м  дымка  10/10 300 м 
[St]
-3.2 -3.9 95 -4  1035.9  0.7  761  311  -3.5         
09 20.01.20 350 (С) 2000 м  снежные зёрна  10/10 300 м 
[St]
-2.4 -3 96 -2  1036  0.2  762  310           
12 20.01.20 290 (З) 4000 м  дымка{снег}  10/10 300 м 
[St]
-1.1 -1.8 95 -1  1035.6  -0.3  761  308      0.0     
15 20.01.20 280 (З) 4000 м  дымка  10/10 300 м 
[St]
-0.8 -1.5 95 -2  1035.5  -0.1  761  308           
18 20.01.20 290 (З) 4000 м  дымка  10/10 300 м 
[St]
-0.2 -1.1 94 -1  1035  -0.4  761  307           
21 20.01.20 290 (З) 10 км    10/10 300 м 
[St]
+0 -1.4 90 -2  1034.3  -0.7  760  307           
00 21.01.20 280 (З) 10 км    10/10 600 м 
[Sc]
+0.2 -1.5 88 -2  1032.9  -1.4  759  306           
03 21.01.20 280 (З) 10 км    10/10 600 м 
[Sc]
-0.4 -1.9 90 -3  1030.8  -2.1  758  306           
06 21.01.20 270 (З) 10 км    10/10 300 м 
[St]
+0 -2 86 -1  1029.3  -1.4  757  305  -0.5         
09 21.01.20 250 (З) 10 км    10/10 300 м 
[St]
+0.4 -2.1 83 -2  1026.9  -2.3  755  304           
12 21.01.20 250 (З) 10 км    10/10 300 м 
[St]
+0.9 -2 81 -2  1024.3  -2.6  753  303           
15 21.01.20 240 (ЮЗ) 10 км    10/10 300 м 
[St]
+0.9 -1.7 83 -1  1022.3  -1.9  752  302           
18 21.01.20 240 (ЮЗ) 10 км    8/0 средняя 
[Ac trans]
+1.6 -1.5 80 -1  1019.3  -2.9  749  300    +1.7       
21 21.01.20 270 (З) 10 км    10/10 600 м 
[Sc]
+2 -0.8 82 -1  1018.5  -0.8  749  300           
00 22.01.20 290 (З) 10 км  слаб. ливневой дождь  10/10 600 м кучево-дожд. 
[Cb calv]
+1.8 +0.2 89 -1  1018.1  -0.4  749  300      0.0     
Время (UTC), дата Ветер
(°,м/с) 
Видим.   Явления Облачность Т
(°С)
Тd
(°С)
f(%) Тe
(°С)
Pmin
(гПа)
dP
(гПа)
Po
(мм)
O2
(г/м3)
Тmin Tmax R s Состояние
почвы

Для получения пояснительной информации подведите курсор к названию столбца.

ПОГОДА в Полтаве - архив

Всё, что Вы хотите узнать о погоде в Полтаве - удобно и подробно!

Выберите нужную дату (начиная с 1 января 2019* года) и нажмите кнопку "Найти".
Будут отображены архивные сводки погоды по пункту Полтава, начиная с указанной даты.


Отображать данные в формате CSV (для использования в таблицах Excel)


Внимание! Наш архив погоды предназначен исключительно для личного некоммерческого использования в познавательных целях. Если Вам необходимы официальные справки о состоянии погоды (для производственных, юридических, коммерческих и т.п. целей), обращайтесь в органы Росгидромета.

*Примечание: данная дата относится к архиву по метеостанциям СССР (Россия, СНГ, Балтия).
Архив по метеостанциям Зарубежной Европы и Азии (кроме Китая) хранится 10 дней, по другим регионам земного шара (Китай, Африка, Америка, Австралия, Океания) - 1 день.

Полтава - район местоположения метеостанции


Название, широта, долгота, высота метеостанции:
Полтава 49.6°ш. 34.6°д. 160 м над ур. моря [Украина]

Дополнительная информация

В oтличие oт бoльшинства пoгoдных сайтoв мы публикуем пoдрoбную метеoинфoрмацию в детальнoм прoфессиoнальнoм фoрмате.

Характеристики температуры и влажнoсти вoздуха измеряются на высoте 2 м в тени вдали oт зданий и деревьев.
Скoрoсть ветра измеряется на высoте 10 м (на урoвне рoста челoвека скoрoсть ветра ниже в 1.5-2 раза). Если метеoстанция нахoдится в гoрoде или в лесу, тo скoрoсть ветра занижена на 2-4 м/с пo сравнению с oткрытым местoм. Скoрoсть ветра над акватoриями крупных рек и oзёр, а также на вершинах хoлмoв на 2-5 м/с выше, чем в oбычных услoвиях.
Атмoсфернoе давление в разных тoчках местнoсти мoжет значительнo oтличаться oт давления на метеoстанции, в зависимoсти oт услoвий рельефа (при пoдъёме на 10 м давление пoнижается примернo на 1 мм рт.ст.).